Tracking 19563 objects as of 20-Mar-2019
HD Live streaming from Space Station
objects crossing your sky now

COSMOS 1157

Track COSMOS 1157 now!
10-day predictions
COSMOS 1157 is classified as:


NORAD ID: 11692
Int'l Code: 1980-012B
Perigee: 1,422.6 km
Apogee: 1,483.0 km
Inclination: 74.0 °
Period: 114.8 minutes
Semi major axis: 7823 km
RCS: 0.711 m2 (medium)
Launch date: February 11, 1980
Source: Commonwealth of Independent States (former USSR) (CIS)
Launch site: PLESETSK MISSILE AND SPACE COMPLEX (PKMTR)
aabbcc
Your satellite tracking list
Your tracking list is empty




NASA's NSSDC Master Catalog

Two Line Element Set (TLE):
1 11692U 80012B   19078.46646123 -.00000007 +00000-0 +55721-4 0  9999
2 11692 074.0191 078.2253 0038589 088.4882 065.9330 12.54522575790764
Source of the keplerian elements: AFSPC